When you browse on this site, cookies collect data to enhance your experience and personalize the content and advertising you see.
Visit our Privacy Policy to learn more. By continuing to use the site, you agree to this use of cookies and data.
  • en France
  • Liste des pays
  • À 7 jours
  • Température de l'eau
  • Carte météo
  • Widgets météo
  • user-avatar
    Se connecter

    Météo par heure à Hutor Ilinskiy

    Ce jour, 20 Octobre, Dimanche

    Heure Température Précipitation Vent Pression Humidité
    00:00 +12°C° 0 mm 2 m/s 750 mmHg 84%
    01:00 +10°C° 0 mm 2 m/s 750 mmHg 85%
    02:00 +10°C° 0 mm 2 m/s 750 mmHg 86%
    03:00 +10°C° 0 mm 2 m/s 750 mmHg 87%
    04:00 +10°C° 0 mm 2 m/s 750 mmHg 89%
    05:00 +10°C° 0 mm 2 m/s 750 mmHg 90%
    06:00 +10°C° 0 mm 2 m/s 750 mmHg 89%
    07:00 +12°C° 0 mm 2 m/s 750 mmHg 88%
    08:00 +12°C° 0 mm 2 m/s 751 mmHg 87%
    09:00 +13°C° 0 mm 3 m/s 751 mmHg 82%
    10:00 +14°C° 0 mm 3 m/s 751 mmHg 78%
    11:00 +16°C° 0 mm 3 m/s 751 mmHg 74%
    12:00 +17°C° 0 mm 3 m/s 751 mmHg 71%
    13:00 +17°C° 0 mm 4 m/s 751 mmHg 68%
    14:00 +18°C° 0 mm 4 m/s 751 mmHg 65%
    15:00 +17°C° 0 mm 3 m/s 751 mmHg 71%
    16:00 +14°C° 0 mm 3 m/s 751 mmHg 76%
    17:00 +13°C° 0 mm 3 m/s 750 mmHg 82%
    18:00 +13°C° 0 mm 3 m/s 751 mmHg 83%
    19:00 +12°C° 0 mm 3 m/s 751 mmHg 84%
    20:00 +12°C° 0 mm 3 m/s 751 mmHg 85%
    21:00 +12°C° 0 mm 3 m/s 751 mmHg 84%
    22:00 +12°C° 0 mm 3 m/s 751 mmHg 84%
    23:00 +11°C° 0 mm 3 m/s 751 mmHg 83%

    Demain, 21 Octobre, Lundi

    Heure Température Précipitation Vent Pression Humidité
    00:00 +11°C° 0 mm 3 m/s 751 mmHg 83%
    01:00 +11°C° 0 mm 3 m/s 751 mmHg 84%
    02:00 +10°C° 0 mm 3 m/s 751 mmHg 84%
    03:00 +10°C° 0 mm 3 m/s 751 mmHg 84%
    04:00 +10°C° 0 mm 3 m/s 750 mmHg 84%
    05:00 +10°C° 0 mm 3 m/s 750 mmHg 83%
    06:00 +10°C° 0 mm 4 m/s 750 mmHg 80%
    07:00 +11°C° 0 mm 4 m/s 750 mmHg 77%
    08:00 +11°C° 0 mm 4 m/s 751 mmHg 73%
    09:00 +13°C° 0 mm 4 m/s 750 mmHg 69%
    10:00 +14°C° 0 mm 5 m/s 750 mmHg 65%
    11:00 +15°C° 0 mm 5 m/s 750 mmHg 62%
    12:00 +16°C° 0 mm 5 m/s 750 mmHg 62%
    13:00 +16°C° 0 mm 5 m/s 750 mmHg 62%
    14:00 +16°C° 0 mm 5 m/s 750 mmHg 63%
    15:00 +15°C° 0 mm 4 m/s 750 mmHg 67%
    16:00 +14°C° 0 mm 4 m/s 749 mmHg 72%
    17:00 +13°C° 0 mm 3 m/s 749 mmHg 77%
    18:00 +13°C° 0 mm 3 m/s 749 mmHg 79%
    19:00 +13°C° 0 mm 3 m/s 749 mmHg 81%
    20:00 +12°C° 0 mm 3 m/s 749 mmHg 84%
    21:00 +12°C° 0 mm 3 m/s 749 mmHg 86%
    22:00 +13°C° 0 mm 2 m/s 749 mmHg 88%
    23:00 +12°C° 0 mm 2 m/s 749 mmHg 89%

    Après-demain, 22 Octobre, Mardi

    Heure Température Précipitation Vent Pression Humidité
    00:00 +12°C° 0 mm 2 m/s 750 mmHg 91%
    01:00 +12°C° 0 mm 2 m/s 750 mmHg 92%
    02:00 +12°C° 0 mm 1 m/s 750 mmHg 93%
    03:00 +12°C° 0 mm 1 m/s 750 mmHg 93%
    04:00 +11°C° 0 mm 1 m/s 750 mmHg 94%
    05:00 +11°C° 0 mm 1 m/s 750 mmHg 94%
    06:00 +12°C° 0 mm 1 m/s 750 mmHg 94%
    07:00 +12°C° 0 mm 1 m/s 751 mmHg 93%
    08:00 +13°C° 0 mm 1 m/s 751 mmHg 92%
    09:00 +14°C° 0 mm 1 m/s 751 mmHg 87%
    10:00 +15°C° 0 mm 1 m/s 751 mmHg 83%
    11:00 +16°C° 0 mm 1 m/s 751 mmHg 79%
    12:00 +16°C° 0 mm 1 m/s 751 mmHg 77%
    13:00 +16°C° 0 mm 1 m/s 751 mmHg 75%
    14:00 +16°C° 0 mm 0 m/s 751 mmHg 74%
    15:00 +15°C° 0 mm 0 m/s 751 mmHg 76%
    16:00 +16°C° 0 mm 1 m/s 751 mmHg 79%
    17:00 +15°C° 0 mm 1 m/s 751 mmHg 82%
    18:00 +15°C° 0 mm 1 m/s 751 mmHg 83%
    19:00 +14°C° 0 mm 1 m/s 751 mmHg 85%
    20:00 +14°C° 0 mm 1 m/s 751 mmHg 86%
    21:00 +14°C° 0 mm 1 m/s 751 mmHg 88%
    22:00 +13°C° 0 mm 2 m/s 751 mmHg 89%
    23:00 +13°C° 0 mm 2 m/s 751 mmHg 91%

    23 Octobre, Mercredi

    Heure Température Précipitation Vent Pression Humidité
    00:00 +12°C° 0 mm 2 m/s 751 mmHg 92%
    01:00 +12°C° 0 mm 2 m/s 750 mmHg 93%
    02:00 +12°C° 0 mm 2 m/s 750 mmHg 95%
    03:00 +11°C° 0 mm 3 m/s 750 mmHg 95%
    04:00 +11°C° 0 mm 3 m/s 750 mmHg 95%
    05:00 +10°C° 0 mm 3 m/s 749 mmHg 95%
    06:00 +11°C° 0 mm 3 m/s 749 mmHg 92%
    07:00 +11°C° 0 mm 3 m/s 749 mmHg 89%
    08:00 +12°C° 0 mm 3 m/s 749 mmHg 87%
    09:00 +13°C° 0 mm 3 m/s 749 mmHg 81%
    10:00 +14°C° 0 mm 4 m/s 749 mmHg 76%
    11:00 +17°C° 0 mm 4 m/s 748 mmHg 71%
    12:00 +17°C° 0 mm 4 m/s 748 mmHg 68%
    13:00 +18°C° 0 mm 4 m/s 747 mmHg 64%
    14:00 +18°C° 0 mm 4 m/s 747 mmHg 61%
    15:00 +17°C° 0 mm 4 m/s 747 mmHg 65%
    16:00 +15°C° 0 mm 4 m/s 747 mmHg 70%
    17:00 +14°C° 0 mm 3 m/s 746 mmHg 74%
    18:00 +14°C° 0 mm 3 m/s 746 mmHg 75%
    19:00 +13°C° 0 mm 3 m/s 746 mmHg 76%
    20:00 +13°C° 0 mm 3 m/s 746 mmHg 78%
    21:00 +14°C° 0 mm 2 m/s 746 mmHg 81%
    22:00 +13°C° 0 mm 2 m/s 746 mmHg 84%
    23:00 +13°C° 0 mm 2 m/s 746 mmHg 87%

    24 Octobre, Jeudi

    Heure Température Précipitation Vent Pression Humidité
    00:00 +13°C° 0.2 mm 2 m/s 746 mmHg 89%
    01:00 +13°C° 0.2 mm 2 m/s 746 mmHg 91%
    02:00 +13°C° 0.2 mm 2 m/s 746 mmHg 93%
    03:00 +13°C° 0.5 mm 2 m/s 746 mmHg 95%
    04:00 +13°C° 0.5 mm 2 m/s 746 mmHg 96%
    05:00 +13°C° 0.5 mm 2 m/s 746 mmHg 97%
    06:00 +13°C° 0.3 mm 2 m/s 746 mmHg 97%
    07:00 +13°C° 0.3 mm 2 m/s 746 mmHg 96%
    08:00 +13°C° 0.3 mm 2 m/s 746 mmHg 96%
    09:00 +13°C° 0.1 mm 2 m/s 747 mmHg 94%
    10:00 +12°C° 0.1 mm 3 m/s 747 mmHg 93%
    11:00 +12°C° 0.1 mm 3 m/s 747 mmHg 91%
    12:00 +12°C° 0 mm 3 m/s 747 mmHg 90%
    13:00 +12°C° 0 mm 3 m/s 747 mmHg 89%
    14:00 +12°C° 0 mm 3 m/s 747 mmHg 87%
    15:00 +12°C° 0 mm 3 m/s 747 mmHg 88%
    16:00 +12°C° 0 mm 3 m/s 747 mmHg 89%
    17:00 +11°C° 0 mm 3 m/s 748 mmHg 91%
    18:00 +12°C° 0 mm 2 m/s 748 mmHg 91%
    19:00 +12°C° 0 mm 2 m/s 748 mmHg 91%
    20:00 +12°C° 0 mm 2 m/s 748 mmHg 91%
    21:00 +12°C° 0 mm 2 m/s 748 mmHg 92%
    22:00 +10°C° 0 mm 2 m/s 748 mmHg 93%
    23:00 +10°C° 0 mm 2 m/s 749 mmHg 94%

    25 Octobre, Vendredi

    Heure Température Précipitation Vent Pression Humidité
    00:00 +10°C° 0 mm 2 m/s 749 mmHg 94%
    01:00 +9°C° 0 mm 2 m/s 749 mmHg 95%
    02:00 +9°C° 0 mm 2 m/s 749 mmHg 95%
    03:00 +9°C° 0 mm 2 m/s 749 mmHg 95%
    04:00 +10°C° 0 mm 1 m/s 749 mmHg 95%
    05:00 +10°C° 0 mm 1 m/s 749 mmHg 95%
    06:00 +10°C° 0 mm 1 m/s 749 mmHg 94%
    07:00 +11°C° 0 mm 1 m/s 749 mmHg 93%
    08:00 +11°C° 0 mm 1 m/s 750 mmHg 92%
    09:00 +12°C° 0 mm 1 m/s 750 mmHg 89%
    10:00 +13°C° 0 mm 2 m/s 750 mmHg 86%
    11:00 +14°C° 0 mm 2 m/s 750 mmHg 83%
    12:00 +14°C° 0 mm 1 m/s 750 mmHg 81%
    13:00 +14°C° 0 mm 1 m/s 750 mmHg 79%
    14:00 +15°C° 0 mm 1 m/s 750 mmHg 76%
    15:00 +14°C° 0 mm 1 m/s 750 mmHg 79%
    16:00 +14°C° 0 mm 1 m/s 750 mmHg 81%
    17:00 +13°C° 0 mm 1 m/s 750 mmHg 83%
    18:00 +12°C° 0 mm 1 m/s 750 mmHg 85%
    19:00 +12°C° 0 mm 1 m/s 750 mmHg 87%
    20:00 +11°C° 0 mm 1 m/s 750 mmHg 89%
    21:00 +11°C° 0 mm 1 m/s 750 mmHg 89%
    22:00 +11°C° 0 mm 1 m/s 750 mmHg 90%
    23:00 +11°C° 0 mm 1 m/s 750 mmHg 90%
    Voir plus